Regional Weather Roundup
Issued by NWS

Home | Current Version | Previous Version | Graphics & Text | Print | Product List | Glossary On
Versions: 1 2 3 4 5 6 7 8 9 10 11 12 13 14 15 16 17 18 19 20 21 22 23 24 25 26 27 28 29 30 31 32 33 34 35 36 37 38 39 40 41 42 43 44 45 46 47 48 49 50
000
ASUS43 KFSD 251710
RWRSD

WEATHER ROUNDUP FOR SOUTH DAKOTA
NATIONAL WEATHER SERVICE SIOUX FALLS SD
1100 AM CST SUN FEB 25 2018

NOTE: "FAIR" INDICATES FEW OR NO CLOUDS BELOW 12,000 FEET WITH NO
SIGNIFICANT WEATHER AND/OR OBSTRUCTIONS TO VISIBILITY.


SDZ001>005-009-010-012>017-251800-
NORTHWEST AND NORTH CENTRAL SOUTH DAKOTA

CITY           SKY/WX    TMP DP  RH WIND       PRES   REMARKS
BUFFALO          N/A     20  12  71 SW18      29.64S WCI   5
FAITH            N/A     22  15  75 W13       29.75R WCI  10
MOBRIDGE       SUNNY     25  14  63 W7        29.73R WCI  17
$$

SDZ012>016-024>037-041>051-057-063-072>074-251800-
SOUTHWEST AND SOUTH CENTRAL SOUTH DAKOTA

CITY           SKY/WX    TMP DP  RH WIND       PRES   REMARKS
RAPID CTY ARPT SUNNY     30  16  56 NW8       29.78R WCI  22
PIERRE         SUNNY     22  13  68 W14       29.82R WCI   9
CUSTER         SUNNY     24   5  44 W16G23    29.70R WCI  11
ELLSWORTH AFB  SUNNY     28  15  58 NW9       29.76R WCI  19
PHILIP         SUNNY     22  12  65 W12       29.83R WCI  10
PINE RIDGE     SUNNY    N/A N/A N/A MISG      29.85R
SPEARFISH        N/A     28  10  47 W22       29.74R WCI  15
WINNER         FAIR      26  13  57 SW13      29.87R WCI  15
$$

SDZ004>011-016>023-039-040-251800-
NORTHEAST SOUTH DAKOTA

CITY           SKY/WX    TMP DP  RH WIND       PRES   REMARKS
ABERDEEN       SUNNY     24  16  71 W14       29.75R WCI  12
WATERTOWN      SUNNY     20  16  84 W20       29.72R WCI   4
BROOKINGS      FLURRIES  25  19  80 W14       29.79R WCI  13
SISSETON         N/A     26  19  74 W23G32    29.69R WCI  11
$$

SDZ017-020-022-023-036>040-048>070-251800-
SOUTHEAST SOUTH DAKOTA

CITY           SKY/WX    TMP DP  RH WIND       PRES   REMARKS
SIOUX FALLS    MOSUNNY   23  14  68 W14       29.86R WCI  11
HURON          SUNNY     26  19  74 W13       29.81R WCI  15
CHAMBERLAIN    MOSUNNY   26  16  65 SW9       29.85R WCI  17
MITCHELL       SUNNY     23  14  68 SW10      29.87R WCI  12
YANKTON        SUNNY     31  16  54 W14       29.91R WCI  21
$$

ABBREVIATIONS USED IN REMARKS
   TC - TEMPERATURE IN CELSIUS
  WCI - WIND CHILL INDEX
   HX - HEAT INDEX
  VSB - VISIBILITY




USA.gov is the U.S. government's official web portal to all federal, state and local government web resources and services.